This is the latest recevied weather packets stored in our database for station/object NO4D. If no packets are shown the sender has not sent any weather packets the latest 10 day(s).
| Time | Temp. | Humidity | Pressure | Rain* | Wind** | Luminosity | Snow |
|---|---|---|---|---|---|---|---|
| 1777582703 | 23.33° C | 54% | 1009.4 hPa | 0 mm | - | 207 W/m² | - |
| 1777582403 | 23.33° C | 53% | 1009.6 hPa | 0 mm | - | 195 W/m² | - |
| 1777582103 | 23.89° C | 57% | 1009.8 hPa | 0 mm | - | 194 W/m² | - |
| 1777581803 | 23.89° C | 58% | 1009.5 hPa | 0 mm | - | 323 W/m² | - |
| 1777581502 | 24.44° C | 55% | 1009.5 hPa | 0 mm | - | 367 W/m² | - |
| 1777581198 | 24.44° C | 55% | 1009.1 hPa | 0 mm | - | 545 W/m² | - |
| 1777580892 | 25° C | 53% | 1009.7 hPa | 0 mm | - | 663 W/m² | - |
| 1777580586 | 23.89° C | 54% | 1009.8 hPa | 0 mm | - | 636 W/m² | - |
| 1777580282 | 24.44° C | 52% | 1009.8 hPa | 0 mm | - | 552 W/m² | - |
| 1777579980 | 23.89° C | 57% | 1009.8 hPa | 0 mm | - | 654 W/m² | - |
| 1777579675 | 23.33° C | 57% | 1009.7 hPa | 0 mm | - | 669 W/m² | - |
| 1777579374 | 24.44° C | 61% | 1009.6 hPa | 0 mm | - | 431 W/m² | - |
| 1777579069 | 23.89° C | 59% | 1009.8 hPa | 0 mm | - | 573 W/m² | - |
| 1777578764 | 24.44° C | 58% | 1009.6 hPa | 0 mm | - | 552 W/m² | - |
| 1777578464 | 23.89° C | 63% | 1009.7 hPa | 0 mm | - | 665 W/m² | - |
| 1777578160 | 23.33° C | 62% | 1009.8 hPa | 0 mm | - | 204 W/m² | - |
| 1777577856 | 23.33° C | 63% | 1009.8 hPa | 0 mm | - | 235 W/m² | - |
| 1777577551 | 23.33° C | 62% | 1009.8 hPa | 0 mm | - | 825 W/m² | - |
| 1777577249 | 22.78° C | 62% | 1009.9 hPa | 0 mm | - | 282 W/m² | - |
| 1777576945 | 22.78° C | 63% | 1010 hPa | 0 mm | - | 575 W/m² | - |
| 1777576641 | 23.89° C | 63% | 1010.1 hPa | 0 mm | - | 369 W/m² | - |
| 1777576341 | 23.33° C | 64% | 1010.1 hPa | 0 mm | - | 724 W/m² | - |
| 1777576038 | 23.33° C | 63% | 1010.2 hPa | 0 mm | - | 777 W/m² | - |
| 1777575734 | 23.33° C | 64% | 1010.2 hPa | 0 mm | - | 593 W/m² | - |
| 1777575430 | 23.33° C | 63% | 1010.1 hPa | 0 mm | - | 539 W/m² | - |
* Rain latest hour (hover to see other rain measurements)
** Current wind speed in m/s (hover to see current wind gust speed)